STARLINK-31943 (59878 NORAD) Tracking and Keplerian Element Data

This shows tracking and keplerian element data for the satellite.

Feedback or suggestion? Click here.




ElementValue
Catalog59878
NameSTARLINK-31943
Epoch Orbit294
Epoch Day160.16667824
Epoch Year2024
RAAN327.9713
Inclination43.0016
Eccentricity0.0001881
Argument of Perigee277.4983
Mean Anonmoly214.5163
Mean Motion15.73481284
Decay Rate-0.01549696
L11 59878U 24098W 24160.16667824 -.01549696 00000+0 -12079-1 0 9994
L22 59878 43.0016 327.9713 0001881 277.4983 214.5163 15.73481284 2943



Live tracking and technical data element details for STARLINK-31943 (NORAD 59878). STARLINK-31943 can be tracked NOW for your location showing map with azimuth and elevation plus other details from your city location.







IsCatalogInMostPopularTable: catalog: 59878, numindb: 6
Update: records affected: 1



GetName: 59878 STARLINK-31943

Hit Count: updated at: Tue, 16 Jul 2024 02:13:59 GMT